Time,TemperatureF,DewpointF,PressureIn,WindDirection,WindDirectionDegrees,WindSpeedMPH,WindSpeedGustMPH,Humidity,HourlyPrecipIn,Conditions,Clouds,dailyrainin,SoftwareType,DateUTC
2013-01-25 00:05:00,56.8,51.8,30.06,NE,45,3.1,4.5,83,0.00,,,0.00,WUHU216EASYWX,2013-01-25 05:05:00,
2013-01-25 00:10:00,56.8,51.8,30.06,North,0,3.8,6.0,83,0.00,,,0.00,WUHU216EASYWX,2013-01-25 05:10:00,
2013-01-25 00:15:00,56.8,51.8,30.06,North,0,3.8,6.0,83,0.00,,,0.00,WUHU216EASYWX,2013-01-25 05:15:00,
2013-01-25 00:25:00,57.0,52.0,30.06,North,0,2.2,4.5,83,0.00,,,0.00,WUHU216EASYWX,2013-01-25 05:25:00,
2013-01-25 00:30:00,56.8,51.8,30.05,NNE,23,3.1,5.4,83,0.00,,,0.00,WUHU216EASYWX,2013-01-25 05:30:00,
2013-01-25 00:35:00,56.8,51.8,30.05,NNE,23,3.1,5.4,83,0.00,,,0.00,WUHU216EASYWX,2013-01-25 05:35:00,
2013-01-25 00:40:00,56.7,52.0,30.05,NNE,23,2.2,4.5,84,0.00,,,0.00,WUHU216EASYWX,2013-01-25 05:40:00,
2013-01-25 00:45:00,56.7,52.0,30.05,NNE,23,2.2,4.5,84,0.00,,,0.00,WUHU216EASYWX,2013-01-25 05:45:00,
2013-01-25 00:55:00,56.3,51.8,30.05,NE,45,2.2,3.8,85,0.00,,,0.00,WUHU216EASYWX,2013-01-25 05:55:00,
2013-01-25 01:00:00,56.1,52.3,30.05,NE,45,2.2,5.4,87,0.00,,,0.00,WUHU216EASYWX,2013-01-25 06:00:00,
2013-01-25 01:05:00,56.1,52.3,30.05,NE,45,2.2,5.4,87,0.00,,,0.00,WUHU216EASYWX,2013-01-25 06:05:00,
2013-01-25 01:15:00,55.9,52.5,30.05,NNE,23,2.2,3.1,88,0.00,,,0.00,WUHU216EASYWX,2013-01-25 06:15:00,
2013-01-25 01:20:00,55.6,52.3,30.05,NNE,23,2.2,4.5,89,0.00,,,0.00,WUHU216EASYWX,2013-01-25 06:20:00,
2013-01-25 01:25:00,55.6,52.3,30.05,NNE,23,2.2,4.5,89,0.00,,,0.00,WUHU216EASYWX,2013-01-25 06:25:00,
2013-01-25 01:35:00,55.6,52.3,30.06,North,0,3.1,4.5,89,0.00,,,0.00,WUHU216EASYWX,2013-01-25 06:35:00,
2013-01-25 01:40:00,55.4,52.5,30.06,North,0,2.2,3.8,90,0.00,,,0.00,WUHU216EASYWX,2013-01-25 06:40:00,
2013-01-25 01:45:00,55.4,52.5,30.06,North,0,2.2,3.8,90,0.00,,,0.00,WUHU216EASYWX,2013-01-25 06:45:00,
2013-01-25 01:55:00,55.0,52.2,30.06,North,0,1.6,2.2,90,0.00,,,0.00,WUHU216EASYWX,2013-01-25 06:55:00,
2013-01-25 02:00:00,55.0,52.5,30.06,North,0,1.6,3.1,91,0.00,,,0.00,WUHU216EASYWX,2013-01-25 07:00:00,
2013-01-25 02:05:00,55.0,52.5,30.06,North,0,1.6,3.1,91,0.00,,,0.00,WUHU216EASYWX,2013-01-25 07:05:00,
2013-01-25 02:10:00,55.0,52.5,30.06,NE,45,2.2,3.8,91,0.00,,,0.00,WUHU216EASYWX,2013-01-25 07:10:00,
2013-01-25 02:15:00,55.0,52.5,30.06,NE,45,2.2,3.8,91,0.00,,,0.00,WUHU216EASYWX,2013-01-25 07:15:00,
2013-01-25 02:25:00,55.0,52.7,30.06,NE,45,1.6,3.1,92,0.00,,,0.00,WUHU216EASYWX,2013-01-25 07:25:00,
2013-01-25 02:30:00,54.7,52.7,30.05,NE,45,0.7,3.1,93,0.00,,,0.00,WUHU216EASYWX,2013-01-25 07:30:00,
2013-01-25 02:35:00,54.7,52.7,30.05,NE,45,0.7,2.2,93,0.00,,,0.00,WUHU216EASYWX,2013-01-25 07:35:00,
2013-01-25 02:45:00,54.5,52.9,30.05,NE,45,1.6,3.1,94,0.00,,,0.00,WUHU216EASYWX,2013-01-25 07:45:00,
2013-01-25 02:50:00,54.5,52.9,30.05,NE,45,3.1,3.8,94,0.00,,,0.00,WUHU216EASYWX,2013-01-25 07:50:00,
2013-01-25 02:55:00,54.5,52.9,30.05,NE,45,3.1,3.8,94,0.00,,,0.00,WUHU216EASYWX,2013-01-25 07:55:00,
2013-01-25 03:05:00,54.3,52.9,30.05,NE,45,1.6,2.2,95,0.00,,,0.00,WUHU216EASYWX,2013-01-25 08:05:00,
2013-01-25 03:10:00,54.1,53.1,30.05,NNE,23,2.2,3.8,96,0.00,,,0.00,WUHU216EASYWX,2013-01-25 08:10:00,
2013-01-25 03:15:00,54.1,53.1,30.05,NNE,23,2.2,3.8,96,0.00,,,0.00,WUHU216EASYWX,2013-01-25 08:15:00,
2013-01-25 03:25:00,54.1,53.1,30.04,NE,45,2.2,3.1,96,0.00,,,0.00,WUHU216EASYWX,2013-01-25 08:25:00,
2013-01-25 03:30:00,54.0,53.2,30.03,NE,45,2.2,3.1,97,0.00,,,0.00,WUHU216EASYWX,2013-01-25 08:30:00,
2013-01-25 03:35:00,54.0,53.2,30.03,NE,45,2.2,3.1,97,0.00,,,0.00,WUHU216EASYWX,2013-01-25 08:35:00,
2013-01-25 03:40:00,53.8,53.1,30.03,NE,45,1.6,3.1,97,0.00,,,0.00,WUHU216EASYWX,2013-01-25 08:40:00,
2013-01-25 03:45:00,53.8,53.1,30.03,NE,45,1.6,3.1,97,0.00,,,0.00,WUHU216EASYWX,2013-01-25 08:45:00,
2013-01-25 03:55:00,53.6,53.1,30.03,NE,45,1.6,3.1,98,0.00,,,0.00,WUHU216EASYWX,2013-01-25 08:55:00,
2013-01-25 04:00:00,53.4,53.2,30.02,NE,45,1.6,2.2,99,0.00,,,0.00,WUHU216EASYWX,2013-01-25 09:00:00,
2013-01-25 04:05:00,53.4,53.2,30.02,NE,45,1.6,2.2,99,0.00,,,0.00,WUHU216EASYWX,2013-01-25 09:05:00,
2013-01-25 04:15:00,53.2,53.1,30.02,North,0,0.7,2.2,99,0.00,,,0.00,WUHU216EASYWX,2013-01-25 09:15:00,
2013-01-25 04:20:00,52.9,52.7,30.02,NE,45,1.6,3.1,99,0.00,,,0.00,WUHU216EASYWX,2013-01-25 09:20:00,
2013-01-25 04:25:00,52.9,52.7,30.02,NE,45,1.6,3.1,99,0.00,,,0.00,WUHU216EASYWX,2013-01-25 09:25:00,
2013-01-25 04:35:00,52.7,52.5,30.02,North,0,1.6,3.1,99,0.00,,,0.00,WUHU216EASYWX,2013-01-25 09:35:00,
2013-01-25 04:40:00,52.7,52.5,30.02,NE,45,2.2,3.8,99,0.00,,,0.00,WUHU216EASYWX,2013-01-25 09:40:00,
2013-01-25 04:45:00,52.7,52.5,30.02,NE,45,2.2,3.8,99,0.00,,,0.00,WUHU216EASYWX,2013-01-25 09:45:00,
2013-01-25 04:50:00,52.7,52.5,30.03,NE,45,1.6,2.2,99,0.00,,,0.00,WUHU216EASYWX,2013-01-25 09:50:00,
2013-01-25 04:55:00,52.7,52.5,30.03,NE,45,1.6,2.2,99,0.00,,,0.00,WUHU216EASYWX,2013-01-25 09:55:00,
2013-01-25 05:05:00,52.5,52.3,30.03,NE,45,0.7,2.2,99,0.00,,,0.00,WUHU216EASYWX,2013-01-25 10:05:00,
2013-01-25 05:10:00,52.3,52.2,30.04,NE,45,0.7,2.2,99,0.00,,,0.00,WUHU216EASYWX,2013-01-25 10:10:00,
2013-01-25 05:15:00,52.3,52.2,30.04,NE,45,0.7,2.2,99,0.00,,,0.00,WUHU216EASYWX,2013-01-25 10:15:00,
2013-01-25 05:25:00,52.5,52.3,30.04,NNE,23,1.6,3.1,99,0.00,,,0.00,WUHU216EASYWX,2013-01-25 10:25:00,
2013-01-25 05:30:00,52.3,52.2,30.04,North,0,1.6,3.1,99,0.00,,,0.00,WUHU216EASYWX,2013-01-25 10:30:00,
2013-01-25 05:35:00,52.3,52.2,30.04,North,0,1.6,3.1,99,0.00,,,0.00,WUHU216EASYWX,2013-01-25 10:35:00,
2013-01-25 05:40:00,52.2,52.0,30.04,North,0,2.2,3.1,99,0.00,,,0.00,WUHU216EASYWX,2013-01-25 10:40:00,
2013-01-25 05:45:00,52.2,52.0,30.04,North,0,2.2,3.1,99,0.00,,,0.00,WUHU216EASYWX,2013-01-25 10:45:00,
2013-01-25 05:55:00,52.2,52.0,30.05,NE,45,1.6,3.1,99,0.00,,,0.00,WUHU216EASYWX,2013-01-25 10:55:00,
2013-01-25 06:00:00,52.2,52.0,30.05,North,0,2.2,3.8,99,0.00,,,0.00,WUHU216EASYWX,2013-01-25 11:00:00,
2013-01-25 06:05:00,52.2,52.0,30.05,North,0,2.2,3.8,99,0.00,,,0.00,WUHU216EASYWX,2013-01-25 11:05:00,
2013-01-25 06:15:00,52.0,51.8,30.05,NE,45,1.6,3.1,99,0.00,,,0.00,WUHU216EASYWX,2013-01-25 11:15:00,
2013-01-25 06:20:00,52.2,52.0,30.06,NNE,23,3.1,4.5,99,0.00,,,0.00,WUHU216EASYWX,2013-01-25 11:20:00,
2013-01-25 06:25:00,52.2,52.0,30.06,NNE,23,3.1,4.5,99,0.00,,,0.00,WUHU216EASYWX,2013-01-25 11:25:00,
2013-01-25 06:30:00,52.3,52.2,30.06,North,0,2.2,3.8,99,0.00,,,0.00,WUHU216EASYWX,2013-01-25 11:30:00,
2013-01-25 06:35:00,52.3,52.2,30.06,North,0,2.2,3.8,99,0.00,,,0.00,WUHU216EASYWX,2013-01-25 11:35:00,
2013-01-25 06:45:00,52.3,52.2,30.06,NW,315,3.1,5.4,99,0.00,,,0.00,WUHU216EASYWX,2013-01-25 11:45:00,
2013-01-25 06:50:00,52.2,52.0,30.06,NNE,23,1.6,5.4,99,0.00,,,0.00,WUHU216EASYWX,2013-01-25 11:50:00,
2013-01-25 06:55:00,52.2,52.0,30.06,NNE,23,1.6,2.2,99,0.00,,,0.00,WUHU216EASYWX,2013-01-25 11:55:00,
2013-01-25 07:05:00,52.2,52.0,30.06,North,0,2.2,3.8,99,0.00,,,0.00,WUHU216EASYWX,2013-01-25 12:05:00,
2013-01-25 07:10:00,52.2,52.0,30.06,North,0,0.7,3.8,99,0.00,,,0.00,WUHU216EASYWX,2013-01-25 12:10:00,
2013-01-25 07:15:00,52.2,52.0,30.06,North,0,0.7,1.6,99,0.00,,,0.00,WUHU216EASYWX,2013-01-25 12:15:00,
2013-01-25 07:20:00,52.3,52.2,30.06,North,0,0.7,1.6,99,0.00,,,0.00,WUHU216EASYWX,2013-01-25 12:20:00,
2013-01-25 07:25:00,52.3,52.2,30.06,North,0,0.7,1.6,99,0.00,,,0.00,WUHU216EASYWX,2013-01-25 12:25:00,
2013-01-25 07:30:00,52.5,52.3,30.06,North,0,0.7,1.6,99,0.00,,,0.00,WUHU216EASYWX,2013-01-25 12:30:00,
2013-01-25 07:35:00,52.5,52.3,30.06,North,0,0.7,1.6,99,0.00,,,0.00,WUHU216EASYWX,2013-01-25 12:35:00,
2013-01-25 07:45:00,52.7,52.5,30.06,North,0,1.6,2.2,99,0.00,,,0.00,WUHU216EASYWX,2013-01-25 12:45:00,
2013-01-25 07:50:00,53.6,53.4,30.06,North,0,1.6,2.2,99,0.00,,,0.00,WUHU216EASYWX,2013-01-25 12:50:00,
2013-01-25 07:55:00,53.6,53.4,30.06,North,0,1.6,2.2,99,0.00,,,0.00,WUHU216EASYWX,2013-01-25 12:55:00,
2013-01-25 08:05:00,54.9,54.7,30.07,NE,45,1.6,3.1,99,0.00,,,0.00,WUHU216EASYWX,2013-01-25 13:05:00,
2013-01-25 08:10:00,56.1,54.7,30.07,NE,45,2.2,3.1,95,0.00,,,0.00,WUHU216EASYWX,2013-01-25 13:10:00,
2013-01-25 08:15:00,56.1,54.7,30.07,NE,45,2.2,3.1,95,0.00,,,0.00,WUHU216EASYWX,2013-01-25 13:15:00,
2013-01-25 08:20:00,57.4,55.0,30.07,NE,45,3.1,4.5,92,0.00,,,0.00,WUHU216EASYWX,2013-01-25 13:20:00,
2013-01-25 08:25:00,57.4,55.0,30.07,NE,45,3.1,4.5,92,0.00,,,0.00,WUHU216EASYWX,2013-01-25 13:25:00,
2013-01-25 08:35:00,58.5,55.6,30.07,NE,45,2.2,4.5,90,0.00,,,0.00,WUHU216EASYWX,2013-01-25 13:35:00,
2013-01-25 08:40:00,59.2,55.4,30.08,NE,45,3.1,4.5,87,0.00,,,0.00,WUHU216EASYWX,2013-01-25 13:40:00,
2013-01-25 08:45:00,59.2,55.4,30.08,NE,45,3.1,4.5,87,0.00,,,0.00,WUHU216EASYWX,2013-01-25 13:45:00,
2013-01-25 08:55:00,60.3,56.1,30.08,NW,315,2.2,3.8,86,0.00,,,0.00,WUHU216EASYWX,2013-01-25 13:55:00,
2013-01-25 09:00:00,61.9,55.9,30.08,NE,45,2.2,5.4,81,0.00,,,0.00,WUHU216EASYWX,2013-01-25 14:00:00,
2013-01-25 09:05:00,61.9,55.9,30.08,NE,45,2.2,5.4,81,0.00,,,0.00,WUHU216EASYWX,2013-01-25 14:05:00,
2013-01-25 09:10:00,62.6,56.3,30.09,North,0,2.2,4.5,80,0.00,,,0.00,WUHU216EASYWX,2013-01-25 14:10:00,
2013-01-25 09:15:00,62.6,56.3,30.09,North,0,2.2,4.5,80,0.00,,,0.00,WUHU216EASYWX,2013-01-25 14:15:00,
2013-01-25 09:25:00,63.3,55.6,30.09,NE,45,6.9,11.4,76,0.00,,,0.00,WUHU216EASYWX,2013-01-25 14:25:00,
2013-01-25 09:30:00,64.0,55.2,30.09,North,0,6.9,9.2,73,0.00,,,0.00,WUHU216EASYWX,2013-01-25 14:30:00,
2013-01-25 09:35:00,64.0,55.2,30.09,North,0,6.9,9.2,73,0.00,,,0.00,WUHU216EASYWX,2013-01-25 14:35:00,
2013-01-25 09:40:00,64.8,55.2,30.09,NNE,23,5.4,7.6,71,0.00,,,0.00,WUHU216EASYWX,2013-01-25 14:40:00,
2013-01-25 09:45:00,64.8,55.2,30.09,NNE,23,5.4,7.6,71,0.00,,,0.00,WUHU216EASYWX,2013-01-25 14:45:00,
2013-01-25 09:55:00,65.7,55.6,30.09,East,90,3.8,5.4,70,0.00,,,0.00,WUHU216EASYWX,2013-01-25 14:55:00,
2013-01-25 10:00:00,66.7,55.4,30.09,ENE,68,5.4,7.6,67,0.00,,,0.00,WUHU216EASYWX,2013-01-25 15:00:00,
2013-01-25 10:05:00,66.7,55.4,30.09,ENE,68,5.4,7.6,67,0.00,,,0.00,WUHU216EASYWX,2013-01-25 15:05:00,
2013-01-25 10:15:00,67.1,55.0,30.09,NE,45,5.4,7.6,65,0.00,,,0.00,WUHU216EASYWX,2013-01-25 15:15:00,
2013-01-25 10:25:00,68.4,55.4,30.09,NE,45,5.4,8.3,63,0.00,,,0.00,WUHU216EASYWX,2013-01-25 15:25:00,
2013-01-25 10:35:00,69.3,54.0,30.09,NE,45,6.0,9.2,58,0.00,,,0.00,WUHU216EASYWX,2013-01-25 15:35:00,
2013-01-25 10:40:00,70.0,54.1,30.09,North,0,4.5,9.2,57,0.00,,,0.00,WUHU216EASYWX,2013-01-25 15:40:00,
2013-01-25 10:45:00,70.0,54.1,30.09,North,0,4.5,7.6,57,0.00,,,0.00,WUHU216EASYWX,2013-01-25 15:45:00,
2013-01-25 10:55:00,71.4,54.5,30.08,NE,45,1.6,5.4,55,0.00,,,0.00,WUHU216EASYWX,2013-01-25 15:55:00,
2013-01-25 11:00:00,71.4,51.3,30.08,North,0,5.4,8.3,49,0.00,,,0.00,WUHU216EASYWX,2013-01-25 16:00:00,
2013-01-25 11:05:00,71.4,51.3,30.08,North,0,5.4,8.3,49,0.00,,,0.00,WUHU216EASYWX,2013-01-25 16:05:00,
2013-01-25 11:15:00,72.1,51.4,30.08,NE,45,5.4,7.6,48,0.00,,,0.00,WUHU216EASYWX,2013-01-25 16:15:00,
2013-01-25 11:20:00,72.7,51.3,30.07,NE,45,5.4,9.2,47,0.00,,,0.00,WUHU216EASYWX,2013-01-25 16:20:00,
2013-01-25 11:25:00,72.7,51.3,30.07,NE,45,5.4,9.2,47,0.00,,,0.00,WUHU216EASYWX,2013-01-25 16:25:00,
2013-01-25 11:35:00,74.1,51.4,30.07,NE,45,3.1,4.5,45,0.00,,,0.00,WUHU216EASYWX,2013-01-25 16:35:00,
2013-01-25 11:40:00,77.5,52.0,30.06,North,0,1.6,2.2,41,0.00,,,0.00,WUHU216EASYWX,2013-01-25 16:40:00,
2013-01-25 11:45:00,77.5,52.0,30.06,North,0,1.6,2.2,41,0.00,,,0.00,WUHU216EASYWX,2013-01-25 16:45:00,
2013-01-25 11:55:00,75.2,51.3,30.06,North,0,3.1,6.0,43,0.00,,,0.00,WUHU216EASYWX,2013-01-25 16:55:00,
2013-01-25 12:00:00,75.9,51.3,30.06,ESE,113,4.5,7.6,42,0.00,,,0.00,WUHU216EASYWX,2013-01-25 17:00:00,
2013-01-25 12:05:00,75.9,51.3,30.06,ESE,113,4.5,7.6,42,0.00,,,0.00,WUHU216EASYWX,2013-01-25 17:05:00,
2013-01-25 12:15:00,75.7,51.8,30.06,East,90,4.5,6.9,43,0.00,,,0.00,WUHU216EASYWX,2013-01-25 17:15:00,
2013-01-25 12:20:00,77.2,52.3,30.05,East,90,1.6,3.8,42,0.00,,,0.00,WUHU216EASYWX,2013-01-25 17:20:00,
2013-01-25 12:25:00,77.2,52.3,30.05,East,90,1.6,3.8,42,0.00,,,0.00,WUHU216EASYWX,2013-01-25 17:25:00,
2013-01-25 12:35:00,79.2,51.4,30.04,SE,135,3.1,6.0,38,0.00,,,0.00,WUHU216EASYWX,2013-01-25 17:35:00,
2013-01-25 12:40:00,79.9,50.5,30.03,East,90,1.6,3.8,36,0.00,,,0.00,WUHU216EASYWX,2013-01-25 17:40:00,
2013-01-25 12:45:00,79.9,50.5,30.03,East,90,1.6,3.8,36,0.00,,,0.00,WUHU216EASYWX,2013-01-25 17:45:00,
2013-01-25 12:55:00,78.1,51.8,30.03,SE,135,3.1,5.4,40,0.00,,,0.00,WUHU216EASYWX,2013-01-25 17:55:00,
2013-01-25 13:00:00,79.2,51.4,30.02,North,0,3.8,6.0,38,0.00,,,0.00,WUHU216EASYWX,2013-01-25 18:00:00,
2013-01-25 13:05:00,79.2,51.4,30.02,North,0,3.8,6.0,38,0.00,,,0.00,WUHU216EASYWX,2013-01-25 18:05:00,
2013-01-25 13:15:00,79.3,50.2,30.01,SE,135,5.4,7.6,36,0.00,,,0.00,WUHU216EASYWX,2013-01-25 18:15:00,
2013-01-25 13:20:00,79.3,50.9,30.00,SE,135,3.8,7.6,37,0.00,,,0.00,WUHU216EASYWX,2013-01-25 18:20:00,
2013-01-25 13:25:00,79.3,50.9,30.00,SE,135,3.8,5.4,37,0.00,,,0.00,WUHU216EASYWX,2013-01-25 18:25:00,
2013-01-25 13:35:00,79.9,51.3,30.00,NE,45,3.1,6.0,37,0.00,,,0.00,WUHU216EASYWX,2013-01-25 18:35:00,
2013-01-25 13:40:00,79.2,50.7,29.99,NE,45,6.0,9.2,37,0.00,,,0.00,WUHU216EASYWX,2013-01-25 18:40:00,
2013-01-25 13:45:00,79.2,50.7,29.99,NE,45,6.0,9.2,37,0.00,,,0.00,WUHU216EASYWX,2013-01-25 18:45:00,
2013-01-25 13:55:00,78.3,51.3,29.98,SE,135,6.0,8.3,39,0.00,,,0.00,WUHU216EASYWX,2013-01-25 18:55:00,
2013-01-25 14:00:00,78.8,51.1,29.98,SW,225,0.7,1.6,38,0.00,,,0.00,WUHU216EASYWX,2013-01-25 19:00:00,
2013-01-25 14:05:00,78.8,51.1,29.98,SW,225,0.7,1.6,38,0.00,,,0.00,WUHU216EASYWX,2013-01-25 19:05:00,
2013-01-25 14:15:00,82.0,50.2,29.98,NE,45,0.0,2.2,33,0.00,,,0.00,WUHU216EASYWX,2013-01-25 19:15:00,
2013-01-25 14:20:00,81.5,50.5,29.98,NNE,23,0.7,2.2,34,0.00,,,0.00,WUHU216EASYWX,2013-01-25 19:20:00,
2013-01-25 14:25:00,81.5,50.5,29.98,NNE,23,0.7,2.2,34,0.00,,,0.00,WUHU216EASYWX,2013-01-25 19:25:00,
2013-01-25 14:35:00,81.7,49.8,29.97,SE,135,2.2,4.5,33,0.00,,,0.00,WUHU216EASYWX,2013-01-25 19:35:00,
2013-01-25 14:40:00,82.8,50.0,29.97,SW,225,0.7,4.5,32,0.00,,,0.00,WUHU216EASYWX,2013-01-25 19:40:00,
2013-01-25 14:45:00,82.8,50.0,29.97,SW,225,0.7,3.1,32,0.00,,,0.00,WUHU216EASYWX,2013-01-25 19:45:00,
2013-01-25 14:55:00,81.5,50.5,29.96,West,270,0.7,3.1,34,0.00,,,0.00,WUHU216EASYWX,2013-01-25 19:55:00,
2013-01-25 15:00:00,81.9,49.1,29.97,ESE,113,2.2,3.8,32,0.00,,,0.00,WUHU216EASYWX,2013-01-25 20:00:00,
2013-01-25 15:05:00,81.9,49.1,29.97,ESE,113,2.2,3.8,32,0.00,,,0.00,WUHU216EASYWX,2013-01-25 20:05:00,
2013-01-25 15:15:00,84.6,46.9,29.96,West,270,1.6,3.8,27,0.00,,,0.00,WUHU216EASYWX,2013-01-25 20:15:00,
2013-01-25 15:20:00,84.4,49.6,29.96,North,0,0.0,1.6,30,0.00,,,0.00,WUHU216EASYWX,2013-01-25 20:20:00,
2013-01-25 15:25:00,84.4,49.6,29.96,North,0,0.0,1.6,30,0.00,,,0.00,WUHU216EASYWX,2013-01-25 20:25:00,
2013-01-25 15:35:00,85.8,47.1,29.97,West,270,2.2,3.1,26,0.00,,,0.00,WUHU216EASYWX,2013-01-25 20:35:00,
2013-01-25 15:40:00,84.0,47.5,29.96,South,180,1.6,4.5,28,0.00,,,0.00,WUHU216EASYWX,2013-01-25 20:40:00,
2013-01-25 15:45:00,84.0,47.5,29.96,South,180,1.6,4.5,28,0.00,,,0.00,WUHU216EASYWX,2013-01-25 20:45:00,
2013-01-25 15:55:00,82.9,49.3,29.96,East,90,0.7,3.8,31,0.00,,,0.00,WUHU216EASYWX,2013-01-25 20:55:00,
2013-01-25 16:00:00,82.8,47.3,29.97,NE,45,0.7,3.1,29,0.00,,,0.00,WUHU216EASYWX,2013-01-25 21:00:00,
2013-01-25 16:05:00,82.8,47.3,29.97,NE,45,0.7,3.1,29,0.00,,,0.00,WUHU216EASYWX,2013-01-25 21:05:00,
2013-01-25 16:15:00,85.6,48.9,29.96,ENE,68,1.6,3.1,28,0.00,,,0.00,WUHU216EASYWX,2013-01-25 21:15:00,
2013-01-25 16:20:00,86.5,46.6,29.96,SW,225,1.6,3.1,25,0.00,,,0.00,WUHU216EASYWX,2013-01-25 21:20:00,
2013-01-25 16:25:00,86.5,46.6,29.96,SW,225,1.6,3.1,25,0.00,,,0.00,WUHU216EASYWX,2013-01-25 21:25:00,
2013-01-25 16:35:00,81.0,50.0,29.96,NW,315,4.5,6.9,34,0.00,,,0.00,WUHU216EASYWX,2013-01-25 21:35:00,
2013-01-25 16:45:00,76.3,48.9,29.96,West,270,9.9,13.0,38,0.00,,,0.00,WUHU216EASYWX,2013-01-25 21:45:00,
2013-01-25 16:50:00,75.7,48.4,29.97,West,270,6.0,13.0,38,0.00,,,0.00,WUHU216EASYWX,2013-01-25 21:50:00,
2013-01-25 16:55:00,75.7,48.4,29.97,West,270,6.0,9.2,38,0.00,,,0.00,WUHU216EASYWX,2013-01-25 21:55:00,
2013-01-25 17:05:00,75.0,49.1,29.97,West,270,6.0,9.2,40,0.00,,,0.00,WUHU216EASYWX,2013-01-25 22:05:00,
2013-01-25 17:10:00,74.8,47.7,29.96,West,270,7.6,10.8,38,0.00,,,0.00,WUHU216EASYWX,2013-01-25 22:10:00,
2013-01-25 17:15:00,74.8,47.7,29.96,West,270,7.6,10.8,38,0.00,,,0.00,WUHU216EASYWX,2013-01-25 22:15:00,
2013-01-25 17:25:00,74.7,48.2,29.96,West,270,6.9,8.3,39,0.00,,,0.00,WUHU216EASYWX,2013-01-25 22:25:00,
2013-01-25 17:30:00,74.3,49.8,29.97,West,270,3.8,6.0,42,0.00,,,0.00,WUHU216EASYWX,2013-01-25 22:30:00,
2013-01-25 17:35:00,74.3,49.8,29.97,West,270,3.8,6.0,42,0.00,,,0.00,WUHU216EASYWX,2013-01-25 22:35:00,
2013-01-25 17:45:00,73.4,46.9,29.97,NW,315,6.0,9.9,39,0.00,,,0.00,WUHU216EASYWX,2013-01-25 22:45:00,
2013-01-25 17:50:00,72.3,49.3,29.97,NW,315,3.1,5.4,44,0.00,,,0.00,WUHU216EASYWX,2013-01-25 22:50:00,
2013-01-25 17:55:00,72.3,49.3,29.97,NW,315,3.1,5.4,44,0.00,,,0.00,WUHU216EASYWX,2013-01-25 22:55:00,
2013-01-25 18:05:00,71.2,49.5,29.96,West,270,4.5,6.9,46,0.00,,,0.00,WUHU216EASYWX,2013-01-25 23:05:00,
2013-01-25 18:10:00,70.2,50.2,29.97,NW,315,3.1,4.5,49,0.00,,,0.00,WUHU216EASYWX,2013-01-25 23:10:00,
2013-01-25 18:15:00,70.2,50.2,29.97,NW,315,3.1,4.5,49,0.00,,,0.00,WUHU216EASYWX,2013-01-25 23:15:00,
2013-01-25 18:25:00,69.1,53.2,29.97,West,270,3.8,4.5,57,0.00,,,0.00,WUHU216EASYWX,2013-01-25 23:25:00,
2013-01-25 18:30:00,68.4,54.0,29.98,NW,315,3.8,5.4,60,0.00,,,0.00,WUHU216EASYWX,2013-01-25 23:30:00,
2013-01-25 18:35:00,68.4,54.0,29.98,NW,315,3.8,5.4,60,0.00,,,0.00,WUHU216EASYWX,2013-01-25 23:35:00,
2013-01-25 18:45:00,67.6,53.2,29.98,NW,315,3.1,4.5,60,0.00,,,0.00,WUHU216EASYWX,2013-01-25 23:45:00,
2013-01-25 18:50:00,66.7,54.1,29.98,NW,315,3.1,3.8,64,0.00,,,0.00,WUHU216EASYWX,2013-01-25 23:50:00,
2013-01-25 18:55:00,66.7,54.1,29.98,NW,315,3.1,3.8,64,0.00,,,0.00,WUHU216EASYWX,2013-01-25 23:55:00,
2013-01-25 19:05:00,66.2,54.5,29.97,NW,315,1.6,2.2,66,0.00,,,0.00,WUHU216EASYWX,2013-01-26 00:05:00,
2013-01-25 19:10:00,65.7,55.2,29.98,NW,315,2.2,3.8,69,0.00,,,0.00,WUHU216EASYWX,2013-01-26 00:10:00,
2013-01-25 19:15:00,65.7,55.2,29.98,NW,315,2.2,3.8,69,0.00,,,0.00,WUHU216EASYWX,2013-01-26 00:15:00,
2013-01-25 19:25:00,65.3,55.8,29.98,NW,315,2.2,3.1,71,0.00,,,0.00,WUHU216EASYWX,2013-01-26 00:25:00,
2013-01-25 19:30:00,64.9,56.1,29.98,West,270,3.8,5.4,73,0.00,,,0.00,WUHU216EASYWX,2013-01-26 00:30:00,
2013-01-25 19:35:00,64.9,56.1,29.98,West,270,3.8,5.4,73,0.00,,,0.00,WUHU216EASYWX,2013-01-26 00:35:00,
2013-01-25 19:45:00,64.6,56.5,29.99,NW,315,2.2,4.5,75,0.00,,,0.00,WUHU216EASYWX,2013-01-26 00:45:00,
2013-01-25 19:50:00,64.0,56.3,29.98,North,0,3.1,3.8,76,0.00,,,0.00,WUHU216EASYWX,2013-01-26 00:50:00,
2013-01-25 19:55:00,64.0,56.3,29.98,North,0,3.1,3.8,76,0.00,,,0.00,WUHU216EASYWX,2013-01-26 00:55:00,
2013-01-25 20:05:00,63.7,56.3,29.98,North,0,2.2,3.8,77,0.00,,,0.00,WUHU216EASYWX,2013-01-26 01:05:00,
2013-01-25 20:10:00,63.3,55.9,29.99,NE,45,0.7,2.2,77,0.00,,,0.00,WUHU216EASYWX,2013-01-26 01:10:00,
2013-01-25 20:15:00,63.3,55.9,29.99,NE,45,0.7,2.2,77,0.00,,,0.00,WUHU216EASYWX,2013-01-26 01:15:00,
2013-01-25 20:25:00,62.4,54.9,29.99,East,90,0.0,0.0,76,0.00,,,0.00,WUHU216EASYWX,2013-01-26 01:25:00,
2013-01-25 20:30:00,62.6,56.1,29.99,NW,315,0.0,0.0,79,0.00,,,0.00,WUHU216EASYWX,2013-01-26 01:30:00,
2013-01-25 20:35:00,62.6,56.1,29.99,NW,315,0.0,0.0,79,0.00,,,0.00,WUHU216EASYWX,2013-01-26 01:35:00,
2013-01-25 20:45:00,62.2,56.1,29.99,NW,315,0.0,0.7,80,0.00,,,0.00,WUHU216EASYWX,2013-01-26 01:45:00,
2013-01-25 20:50:00,61.9,55.8,29.99,NW,315,0.0,1.6,80,0.00,,,0.00,WUHU216EASYWX,2013-01-26 01:50:00,
2013-01-25 20:55:00,61.9,55.8,29.99,NW,315,0.0,1.6,80,0.00,,,0.00,WUHU216EASYWX,2013-01-26 01:55:00,
2013-01-25 21:05:00,62.4,57.6,29.99,North,0,0.7,1.6,84,0.00,,,0.00,WUHU216EASYWX,2013-01-26 02:05:00,
2013-01-25 21:10:00,61.9,56.3,29.99,North,0,0.0,0.0,82,0.00,,,0.00,WUHU216EASYWX,2013-01-26 02:10:00,
2013-01-25 21:15:00,61.9,56.3,29.99,North,0,0.0,0.0,82,0.00,,,0.00,WUHU216EASYWX,2013-01-26 02:15:00,
2013-01-25 21:20:00,61.7,56.5,29.99,North,0,0.7,1.6,83,0.00,,,0.00,WUHU216EASYWX,2013-01-26 02:20:00,
2013-01-25 21:25:00,61.7,56.5,29.99,North,0,0.7,1.6,83,0.00,,,0.00,WUHU216EASYWX,2013-01-26 02:25:00,
2013-01-25 21:35:00,61.9,56.3,29.99,North,0,0.0,0.7,82,0.00,,,0.00,WUHU216EASYWX,2013-01-26 02:35:00,
2013-01-25 21:50:00,61.3,56.8,30.00,North,0,1.6,3.1,85,0.00,,,0.00,WUHU216EASYWX,2013-01-26 02:50:00,
2013-01-25 21:55:00,61.3,56.8,30.00,North,0,1.6,3.1,85,0.00,,,0.00,WUHU216EASYWX,2013-01-26 02:55:00,
2013-01-25 22:05:00,60.8,55.9,30.00,North,0,1.6,2.2,84,0.00,,,0.00,WUHU216EASYWX,2013-01-26 03:05:00,
2013-01-25 22:10:00,60.3,55.4,30.01,North,0,2.2,3.8,84,0.00,,,0.00,WUHU216EASYWX,2013-01-26 03:10:00,
2013-01-25 22:15:00,60.3,55.4,30.01,North,0,2.2,3.8,84,0.00,,,0.00,WUHU216EASYWX,2013-01-26 03:15:00,
2013-01-25 22:25:00,60.1,55.2,30.01,North,0,2.2,3.8,84,0.00,,,0.00,WUHU216EASYWX,2013-01-26 03:25:00,
2013-01-25 22:30:00,59.9,55.0,30.01,North,0,2.2,3.8,84,0.00,,,0.00,WUHU216EASYWX,2013-01-26 03:30:00,
2013-01-25 22:35:00,59.9,55.0,30.01,North,0,2.2,3.8,84,0.00,,,0.00,WUHU216EASYWX,2013-01-26 03:35:00,
2013-01-25 22:40:00,59.7,54.9,30.01,North,0,2.2,3.8,84,0.00,,,0.00,WUHU216EASYWX,2013-01-26 03:40:00,
2013-01-25 22:45:00,59.7,54.9,30.01,North,0,2.2,3.8,84,0.00,,,0.00,WUHU216EASYWX,2013-01-26 03:45:00,
2013-01-25 22:55:00,59.5,54.3,30.00,NW,315,0.0,0.7,83,0.00,,,0.00,WUHU216EASYWX,2013-01-26 03:55:00,
2013-01-25 23:00:00,59.5,54.1,30.01,North,0,3.8,5.4,82,0.00,,,0.00,WUHU216EASYWX,2013-01-26 04:00:00,
2013-01-25 23:05:00,59.5,54.1,30.01,North,0,3.8,5.4,82,0.00,,,0.00,WUHU216EASYWX,2013-01-26 04:05:00,
2013-01-25 23:15:00,59.0,54.0,30.00,ESE,113,0.0,1.6,83,0.00,,,0.00,WUHU216EASYWX,2013-01-26 04:15:00,
2013-01-25 23:20:00,58.8,54.3,30.00,North,0,1.6,3.1,85,0.00,,,0.00,WUHU216EASYWX,2013-01-26 04:20:00,
2013-01-25 23:25:00,58.8,54.3,30.00,North,0,1.6,3.1,85,0.00,,,0.00,WUHU216EASYWX,2013-01-26 04:25:00,
2013-01-25 23:30:00,58.1,54.0,30.01,East,90,2.2,3.1,86,0.00,,,0.00,WUHU216EASYWX,2013-01-26 04:30:00,
2013-01-25 23:35:00,58.1,54.0,30.01,East,90,2.2,3.1,86,0.00,,,0.00,WUHU216EASYWX,2013-01-26 04:35:00,
2013-01-25 23:45:00,57.9,53.8,30.00,North,0,1.6,3.1,86,0.00,,,0.00,WUHU216EASYWX,2013-01-26 04:45:00,
2013-01-25 23:50:00,57.9,53.4,30.00,NE,45,1.6,3.1,85,0.00,,,0.00,WUHU216EASYWX,2013-01-26 04:50:00,
2013-01-25 23:55:00,57.9,53.4,30.00,NE,45,1.6,3.1,85,0.00,,,0.00,WUHU216EASYWX,2013-01-26 04:55:00,